FW7092 Weather Reports


Display with metric or nautical units.
time (UTC)temp
F
wind
direction
speed
MPH
gust
MPH
rain 1hr
in
rain 24hr
in
rain mn
in
humidity
%
barometer
mb
20260902024304 74 211 1.0 1.0 0.00 0.02 0.02 95 1016.5
20260902023759 74 212 1.0 1.0 0.00 0.02 0.02 96 1016.5
20260902023255 74 207 1.0 1.0 0.00 0.02 0.02 95 1016.5
20260902022754 74 228 0.0 1.0 0.00 0.02 0.02 94 1016.7
20260902022249 75 226 1.0 1.0 0.00 0.02 0.02 94 1016.8
20260902021745 75 210 0.0 0.0 0.00 0.02 0.02 94 1016.7
20260902021245 76 210 0.0 0.0 0.00 0.02 0.02 92 1016.8
20260902020741 77 210 0.0 0.0 0.00 0.02 0.02 91 1016.9
20260902020237 77 210 0.0 0.0 0.00 0.02 0.02 89 1016.8
20260902015732 76 210 0.0 0.0 0.00 0.02 0.02 91 1016.8
20260902015229 76 191 0.0 0.0 0.00 0.02 0.02 93 1017.1
20260902014724 76 191 0.0 0.0 0.00 0.02 0.02 93 1017.0
20260902014220 76 191 0.0 0.0 0.00 0.02 0.02 94 1017.1
20260902013718 76 184 0.0 1.0 0.00 0.02 0.02 94 1016.8
20260902013214 76 191 0.0 0.0 0.00 0.02 0.02 95 1016.9
20260902012709 76 167 0.0 0.0 0.00 0.02 0.02 95 1017.0
20260902012200 76 167 0.0 0.0 0.00 0.02 0.02 95 1017.0
20260902011655 77 167 0.0 0.0 0.00 0.02 0.02 95 1016.6
20260902011154 77 164 0.0 1.0 0.00 0.02 0.02 95 1016.7
20260902010654 77 176 0.0 0.0 0.00 0.02 0.02 95 1016.6
20260902010150 77 174 0.0 0.0 0.00 0.02 0.02 95 1016.6
20260902005648 77 218 0.0 0.0 0.00 0.02 0.02 94 1016.4
20260902005144 78 238 0.0 0.0 0.00 0.02 0.02 94 1016.5
20260902004643 78 222 0.0 0.0 0.00 0.02 0.02 94 1016.6
20260902004138 78 210 0.0 1.0 0.00 0.02 0.02 94 1016.6
20260902003634 78 236 0.0 0.0 0.00 0.02 0.02 94 1016.6
20260902003129 78 246 0.0 0.0 0.00 0.02 0.02 93 1016.5
20260902002625 78 231 0.0 0.0 0.00 0.02 0.02 93 1016.5
20260902002119 79 214 0.0 0.0 0.00 0.02 0.02 93 1016.3
20260902001614 79 224 0.0 0.0 0.00 0.02 0.02 92 1016.7
20260902001109 79 226 0.0 0.0 0.00 0.02 0.02 91 1016.8
20260902000604 80 235 0.0 1.0 0.00 0.02 0.02 91 1017.0
20260902000059 80 270 3.0 3.0 0.00 0.02 0.02 90 1016.8
20260901235559 80 277 2.0 2.0 0.00 0.02 0.02 91 1017.1
20260901235055 80 235 0.0 1.0 0.00 0.02 0.02 91 1016.7
20260901234553 80 248 2.0 3.0 0.00 0.02 0.02 91 1016.7
20260901234049 80 271 3.0 3.0 0.00 0.02 0.02 89 1017.0
20260901233548 80 218 4.0 6.0 0.00 0.02 0.02 89 1016.5
20260901233045 80 248 2.0 3.0 0.00 0.02 0.02 90 1016.6
20260901232540 80 241 5.0 8.0 0.00 0.02 0.02 89 1016.5
20260901232035 80 233 1.0 1.0 0.00 0.02 0.02 90 1016.6
20260901231531 80 251 2.0 2.0 0.00 0.02 0.02 89 1016.6
20260901231028 80 242 2.0 3.0 0.00 0.02 0.02 89 1016.9
20260901230528 80 262 1.0 2.0 0.00 0.02 0.02 88 1016.9
20260901230023 80 247 3.0 6.0 0.00 0.02 0.02 87 1016.7
20260901225518 80 242 3.0 5.0 0.00 0.02 0.02 87 1016.4
20260901225012 80 238 4.0 6.0 0.00 0.02 0.02 90 1016.5
20260901224508 80 213 9.0 13.0 0.00 0.02 0.02 89 1016.2
20260901224004 79 217 8.0 8.0 0.00 0.02 0.02 91 1016.3
20260901223459 79 237 9.0 9.0 0.00 0.02 0.02 91 1016.7
20260901222954 79 218 8.0 9.0 0.00 0.02 0.02 92 1016.8
20260901222451 78 220 7.0 10.0 0.00 0.02 0.02 91 1017.0
20260901221946 78 222 4.0 5.0 0.00 0.02 0.02 92 1016.8
20260901221443 78 234 5.0 6.0 0.00 0.02 0.02 91 1016.9
20260901220943 78 223 6.0 8.0 0.00 0.02 0.02 91 1016.8
20260901220442 78 215 5.0 6.0 0.00 0.02 0.02 91 1016.6
20260901215940 78 216 3.0 5.0 0.00 0.02 0.02 91 1016.9
20260901215439 77 216 3.0 5.0 0.00 0.02 0.02 92 1016.7
20260901214938 77 238 3.0 5.0 0.00 0.02 0.02 91 1016.7
20260901214437 77 219 3.0 5.0 0.00 0.02 0.02 91 1016.2
20260901213932 78 205 3.0 5.0 0.00 0.02 0.02 89 1016.3
20260901213427 78 233 2.0 5.0 0.00 0.02 0.02 90 1016.8
20260901212926 78 248 4.0 9.0 0.00 0.02 0.02 88 1016.8
20260901212421 78 232 7.0 9.0 0.00 0.02 0.02 85 1017.0
20260901211918 78 243 7.0 10.0 0.00 0.02 0.02 85 1017.1
20260901211413 79 225 6.0 10.0 0.00 0.02 0.02 84 1017.4
20260901210909 80 216 8.0 11.0 0.00 0.02 0.02 82 1017.5
20260901210404 80 237 8.0 11.0 0.00 0.02 0.02 84 1017.3
20260901205901 80 218 8.0 13.0 0.00 0.02 0.02 85 1017.5
20260901205355 80 237 7.0 9.0 0.00 0.02 0.02 87 1017.7
20260901204850 81 235 6.0 9.0 0.00 0.02 0.02 86 1017.5
20260901204347 81 243 4.0 7.0 0.00 0.02 0.02 87 1017.6
20260901203847 81 218 6.0 7.0 0.00 0.02 0.02 85 1017.5
20260901203341 81 214 5.0 7.0 0.00 0.02 0.02 85 1017.3
20260901202836 81 222 4.0 6.0 0.00 0.02 0.02 86 1017.3
20260901202331 81 252 4.0 6.0 0.00 0.02 0.02 86 1017.5
20260901201827 81 253 3.0 5.0 0.00 0.02 0.02 86 1017.6
20260901201326 81 255 5.0 6.0 0.00 0.02 0.02 85 1017.4
20260901200820 81 245 2.0 5.0 0.00 0.02 0.02 85 1017.2
20260901200316 81 235 3.0 6.0 0.00 0.02 0.02 85 1017.6
20260901195814 81 253 5.0 6.0 0.00 0.02 0.02 83 1017.6
20260901195307 81 225 4.0 5.0 0.00 0.02 0.02 83 1017.4
20260901194803 81 215 5.0 7.0 0.00 0.02 0.02 83 1017.3
20260901194257 81 232 5.0 7.0 0.00 0.02 0.02 82 1017.5
20260901193754 81 222 8.0 11.0 0.00 0.02 0.02 81 1017.4
20260901193252 82 227 5.0 9.0 0.00 0.02 0.02 80 1017.5
20260901192747 82 247 7.0 9.0 0.00 0.02 0.02 79 1017.2
20260901192243 83 216 10.0 16.0 0.00 0.02 0.02 79 1017.4
20260901191738 83 211 7.0 9.0 0.00 0.02 0.02 80 1017.6
20260901191235 83 236 8.0 10.0 0.00 0.02 0.02 79 1017.5
20260901190730 84 231 9.0 11.0 0.00 0.02 0.02 79 1017.6
20260901190230 85 219 9.0 13.0 0.00 0.02 0.02 76 1017.5
20260901185728 84 236 8.0 10.0 0.00 0.02 0.02 77 1017.5
20260901185227 84 251 9.0 11.0 0.00 0.02 0.02 76 1017.5
20260901184723 85 215 7.0 9.0 0.00 0.02 0.02 77 1017.3
20260901184218 85 245 11.0 13.0 0.00 0.02 0.02 75 1017.3
20260901183714 85 248 10.0 13.0 0.00 0.02 0.02 77 1017.4
20260901183213 85 247 9.0 13.0 0.00 0.02 0.02 77 1017.3
20260901182710 85 256 7.0 10.0 0.00 0.02 0.02 77 1017.2
20260901182208 86 244 8.0 13.0 0.00 0.02 0.02 74 1016.8
20260901181704 86 219 11.0 18.0 0.00 0.02 0.02 74 1016.9
20260901181158 85 242 7.0 8.0 0.00 0.02 0.02 77 1016.6
20260901180657 85 260 10.0 11.0 0.00 0.02 0.02 77 1017.1
20260901180151 84 226 8.0 10.0 0.00 0.02 0.02 78 1016.9
20260901175650 84 237 8.0 13.0 0.00 0.02 0.02 79 1016.8
20260901175145 85 243 7.0 14.0 0.00 0.02 0.02 78 1017.0
20260901174640 84 248 7.0 13.0 0.00 0.02 0.02 79 1016.9
20260901174136 84 224 8.0 9.0 0.00 0.02 0.02 80 1016.9
20260901173631 84 232 6.0 13.0 0.00 0.02 0.02 80 1017.1
20260901173126 84 218 6.0 10.0 0.00 0.02 0.02 80 1017.0
20260901172622 84 232 11.0 15.0 0.00 0.02 0.02 78 1016.8
20260901172120 85 249 9.0 13.0 0.00 0.02 0.02 78 1016.7
20260901171620 84 230 9.0 15.0 0.00 0.02 0.02 79 1016.9
20260901171114 84 228 7.0 10.0 0.00 0.02 0.02 80 1016.8
20260901170613 83 219 9.0 14.0 0.00 0.02 0.02 83 1016.9
20260901170108 83 239 8.0 10.0 0.00 0.02 0.02 83 1017.0
20260901165607 81 243 5.0 10.0 0.00 0.02 0.02 88 1016.9
20260901165103 80 226 3.0 6.0 0.00 0.02 0.02 92 1017.0
20260901164558 78 229 3.0 5.0 0.00 0.02 0.02 93 1017.2
20260901164053 77 236 2.0 2.0 0.00 0.02 0.02 94 1017.1
20260901163549 77 209 4.0 5.0 0.00 0.02 0.02 95 1017.4
20260901163048 76 227 2.0 2.0 0.00 0.02 0.02 95 1017.5
20260901162543 76 227 1.0 2.0 0.00 0.02 0.02 95 1017.5
20260901162042 76 241 4.0 6.0 0.07 0.02 0.02 95 1017.7
20260901161541 75 240 2.0 3.0 0.14 0.02 0.02 95 1017.7
20260901161041 75 243 3.0 5.0 0.00 0.00 0.00 94 1017.6
20260901160538 76 225 6.0 10.0 0.00 0.00 0.00 92 1017.8
20260901160033 77 231 5.0 8.0 0.00 0.00 0.00 88 1017.8
20260901155531 77 235 5.0 9.0 0.00 0.00 0.00 86 1017.7
20260901155027 77 220 7.0 14.0 0.00 0.00 0.00 86 1017.8
20260901154527 78 230 8.0 9.0 0.00 0.00 0.00 86 1017.7
20260901154022 77 228 5.0 8.0 0.00 0.00 0.00 87 1017.5
20260901153516 77 245 5.0 7.0 0.00 0.00 0.00 87 1017.5
20260901153011 77 247 5.0 7.0 0.00 0.00 0.00 87 1017.6
20260901152511 77 239 3.0 5.0 0.00 0.00 0.00 87 1017.3
20260901152010 78 237 4.0 6.0 0.00 0.00 0.00 86 1017.3
20260901151506 77 238 5.0 8.0 0.00 0.00 0.00 87 1017.2
20260901151005 77 235 4.0 6.0 0.00 0.00 0.00 87 1017.4
20260901150503 77 258 5.0 7.0 0.00 0.00 0.00 87 1017.5
20260901150001 78 256 5.0 7.0 0.00 0.00 0.00 87 1017.7
20260901145455 78 217 5.0 11.0 0.00 0.00 0.00 86 1017.9
20260901144954 78 230 7.0 10.0 0.00 0.00 0.00 85 1017.9
20260901144450 78 244 8.0 10.0 0.00 0.00 0.00 85 1017.8
20260901143945 79 230 6.0 9.0 0.00 0.00 0.00 85 1017.7
20260901143442 79 246 7.0 9.0 0.00 0.00 0.00 84 1017.6
20260901142938 79 233 6.0 11.0 0.00 0.00 0.00 83 1017.6
20260901142438 80 255 6.0 10.0 0.00 0.00 0.00 83 1017.8
20260901141933 79 244 8.0 10.0 0.00 0.00 0.00 84 1018.0
20260901141427 79 233 9.0 14.0 0.00 0.00 0.00 82 1017.8
20260901140928 80 257 10.0 14.0 0.00 0.00 0.00 82 1017.8
20260901140426 80 252 8.0 10.0 0.00 0.00 0.00 82 1018.0
20260901135920 80 247 7.0 10.0 0.00 0.00 0.00 82 1017.7
20260901135415 80 235 5.0 8.0 0.00 0.00 0.00 83 1017.8
20260901134911 80 229 6.0 8.0 0.00 0.00 0.00 82 1017.9
20260901134407 78 243 7.0 9.0 0.00 0.00 0.00 84 1017.8
20260901133906 78 230 8.0 9.0 0.00 0.00 0.00 84 1017.7
20260901133406 78 233 6.0 9.0 0.00 0.00 0.00 84 1017.7
20260901132904 78 239 6.0 9.0 0.00 0.00 0.00 84 1017.9
20260901132359 78 233 6.0 10.0 0.00 0.00 0.00 84 1017.8
20260901131858 78 224 7.0 11.0 0.00 0.00 0.00 84 1017.7
20260901131358 79 252 6.0 9.0 0.00 0.00 0.00 84 1017.7
20260901130853 79 252 10.0 13.0 0.00 0.00 0.00 83 1017.5
20260901130348 79 244 7.0 16.0 0.00 0.00 0.00 83 1017.3
20260901125846 79 237 7.0 9.0 0.00 0.00 0.00 85 1017.3
20260901125345 79 208 7.0 8.0 0.00 0.00 0.00 85 1017.1
20260901124840 78 230 5.0 8.0 0.00 0.00 0.00 86 1017.4
20260901124336 78 233 5.0 10.0 0.00 0.00 0.00 86 1017.3
20260901123835 77 198 6.0 8.0 0.00 0.00 0.00 87 1017.2
20260901123330 76 248 4.0 7.0 0.00 0.00 0.00 89 1017.2
20260901122829 76 221 5.0 7.0 0.00 0.00 0.00 90 1017.3
20260901122324 75 229 5.0 7.0 0.00 0.00 0.00 91 1017.6
20260901121822 75 237 5.0 6.0 0.00 0.00 0.00 93 1017.5
20260901121318 74 234 2.0 5.0 0.00 0.00 0.00 93 1017.4
20260901120813 74 221 5.0 6.0 0.00 0.00 0.00 93 1017.6
20260901120307 74 214 4.0 8.0 0.00 0.00 0.00 93 1017.5
20260901115803 74 228 4.0 7.0 0.00 0.00 0.00 93 1017.3
20260901115258 74 248 4.0 7.0 0.00 0.00 0.00 94 1017.4
20260901114755 74 236 4.0 7.0 0.00 0.00 0.00 94 1017.4
20260901114250 73 228 4.0 6.0 0.00 0.00 0.00 94 1017.4
20260901113748 73 234 3.0 6.0 0.00 0.00 0.00 95 1017.2
20260901113243 73 225 4.0 5.0 0.00 0.00 0.00 95 1017.1
20260901112738 73 238 4.0 5.0 0.00 0.00 0.00 94 1017.1
20260901112237 73 215 3.0 3.0 0.00 0.00 0.00 94 1017.1
20260901111732 73 201 3.0 5.0 0.00 0.00 0.00 94 1017.1
20260901111232 73 221 2.0 3.0 0.00 0.00 0.00 94 1017.3
20260901110726 73 220 2.0 3.0 0.00 0.00 0.00 94 1017.2
20260901110221 73 232 2.0 5.0 0.00 0.00 0.00 94 1017.1
20260901105718 74 212 3.0 5.0 0.00 0.00 0.00 94 1017.2
20260901105217 74 224 4.0 5.0 0.00 0.00 0.00 93 1017.1
20260901104713 74 226 3.0 5.0 0.00 0.00 0.00 93 1017.1
20260901104209 74 221 4.0 5.0 0.00 0.00 0.00 93 1017.0
20260901103708 74 222 4.0 5.0 0.00 0.00 0.00 93 1017.0
20260901103204 74 229 3.0 5.0 0.00 0.00 0.00 93 1017.1
20260901102704 74 234 2.0 3.0 0.00 0.00 0.00 93 1017.0
20260901102203 75 235 2.0 5.0 0.00 0.00 0.00 93 1017.1
20260901101659 75 229 3.0 5.0 0.00 0.00 0.00 92 1017.0
20260901101159 75 204 4.0 6.0 0.00 0.00 0.00 92 1017.0
20260901100653 75 221 6.0 7.0 0.00 0.00 0.00 92 1017.0
20260901100148 75 223 4.0 5.0 0.00 0.00 0.00 92 1016.8
20260901095646 75 235 3.0 6.0 0.00 0.00 0.00 92 1016.7
20260901095144 75 237 5.0 7.0 0.00 0.00 0.00 92 1016.7
20260901094638 74 228 5.0 7.0 0.00 0.00 0.00 92 1016.7
20260901094133 74 243 4.0 6.0 0.00 0.00 0.00 93 1016.9
20260901093627 74 215 3.0 5.0 0.00 0.00 0.00 93 1016.8
20260901093127 74 237 4.0 5.0 0.00 0.00 0.00 93 1016.9
20260901092623 74 230 3.0 6.0 0.00 0.00 0.00 93 1016.7
20260901092119 74 227 4.0 5.0 0.00 0.00 0.00 93 1016.7
20260901091614 74 237 5.0 5.0 0.00 0.00 0.00 93 1016.4
20260901091109 74 221 4.0 6.0 0.00 0.00 0.00 93 1016.7
20260901090609 74 231 3.0 5.0 0.00 0.00 0.00 93 1016.5
20260901090105 74 230 5.0 6.0 0.00 0.00 0.00 93 1016.5
20260901085600 74 210 4.0 5.0 0.00 0.00 0.00 93 1016.5
20260901085056 74 222 5.0 7.0 0.00 0.00 0.00 93 1016.7
20260901084552 74 223 4.0 6.0 0.00 0.00 0.00 92 1016.6
20260901084048 75 232 5.0 6.0 0.00 0.00 0.00 92 1016.4
20260901083548 75 203 4.0 7.0 0.00 0.00 0.00 92 1016.4
20260901083046 75 217 5.0 6.0 0.00 0.00 0.00 92 1016.3
20260901082541 75 216 5.0 7.0 0.00 0.00 0.00 92 1016.5
20260901082037 75 217 5.0 6.0 0.00 0.00 0.00 92 1016.4
20260901081532 75 230 5.0 7.0 0.00 0.00 0.00 92 1016.4
20260901081026 75 217 4.0 5.0 0.00 0.00 0.00 92 1016.3
20260901080525 74 219 5.0 6.0 0.00 0.00 0.00 92 1016.3
20260901080020 75 226 3.0 6.0 0.00 0.00 0.00 92 1016.6
20260901075516 74 242 3.0 6.0 0.00 0.00 0.00 92 1016.4
20260901075015 74 230 2.0 5.0 0.00 0.00 0.00 92 1016.6
20260901074514 74 215 3.0 5.0 0.00 0.00 0.00 92 1016.5
20260901074009 75 215 3.0 5.0 0.00 0.00 0.00 91 1016.5
20260901073506 75 217 3.0 5.0 0.00 0.00 0.00 91 1016.6
20260901073001 75 232 3.0 5.0 0.00 0.00 0.00 91 1016.4
20260901072455 75 245 3.0 5.0 0.00 0.00 0.00 91 1016.5
20260901071951 75 226 4.0 7.0 0.00 0.00 0.00 90 1016.5
20260901071450 75 232 4.0 7.0 0.00 0.00 0.00 90 1016.5
20260901070949 75 221 5.0 7.0 0.00 0.00 0.00 90 1016.5
20260901070445 75 215 4.0 6.0 0.00 0.00 0.00 90 1016.3
20260901065943 75 222 5.0 7.0 0.00 0.00 0.00 90 1016.5
20260901065440 75 214 4.0 7.0 0.00 0.00 0.00 90 1016.5
20260901064934 75 218 5.0 6.0 0.00 0.00 0.00 90 1016.5
20260901064430 75 212 5.0 5.0 0.00 0.00 0.00 90 1016.4
20260901063928 76 213 4.0 5.0 0.00 0.00 0.00 89 1016.7
20260901063424 76 213 5.0 6.0 0.00 0.00 0.00 88 1016.4
20260901062920 76 225 4.0 6.0 0.00 0.00 0.00 88 1016.3
20260901062415 76 214 5.0 7.0 0.00 0.00 0.00 88 1016.6
20260901061911 77 217 4.0 6.0 0.00 0.00 0.00 87 1016.6
20260901061407 77 219 5.0 7.0 0.00 0.00 0.00 87 1016.6
20260901060901 77 222 5.0 7.0 0.00 0.00 0.00 86 1016.6
20260901060357 77 221 6.0 9.0 0.00 0.00 0.00 86 1016.6
20260901055856 77 214 7.0 8.0 0.00 0.00 0.00 86 1016.8
20260901055353 77 212 6.0 9.0 0.00 0.00 0.00 86 1016.8
20260901054849 77 221 5.0 7.0 0.00 0.00 0.00 87 1016.6
20260901054346 77 216 6.0 7.0 0.00 0.00 0.00 87 1016.6
20260901053842 77 219 6.0 7.0 0.00 0.00 0.00 87 1016.8
20260901053337 77 222 6.0 8.0 0.00 0.00 0.00 87 1016.9
20260901052833 77 217 6.0 7.0 0.00 0.00 0.00 87 1016.9
20260901052328 77 212 4.0 6.0 0.00 0.00 0.00 87 1016.7
20260901051826 77 226 6.0 6.0 0.00 0.00 0.00 87 1016.7
20260901051322 77 202 5.0 8.0 0.00 0.00 0.00 86 1016.8
20260901050817 77 216 8.0 9.0 0.00 0.00 0.00 86 1017.0
20260901050312 77 227 7.0 8.0 0.00 0.00 0.00 86 1016.7
20260901045807 78 203 6.0 7.0 0.00 0.00 0.00 85 1016.7
20260901045301 78 221 6.0 8.0 0.00 0.00 0.00 85 1016.8
20260901044752 78 210 7.0 7.0 0.00 0.00 0.00 85 1016.7
20260901044248 78 211 5.0 6.0 0.00 0.00 0.00 86 1016.8
20260901043743 77 202 4.0 9.0 0.00 0.00 0.00 87 1016.7
20260901043239 76 212 5.0 6.0 0.00 0.00 0.00 89 1016.6
20260901042739 76 208 5.0 6.0 0.00 0.00 0.00 90 1016.8
20260901042238 76 214 5.0 6.0 0.00 0.00 0.00 90 1016.9
20260901041734 76 219 4.0 5.0 0.00 0.00 0.00 89 1016.9
20260901041234 76 224 5.0 6.0 0.00 0.00 0.00 89 1016.8
20260901040729 76 204 5.0 6.0 0.00 0.00 0.00 89 1016.7
20260901040228 77 222 5.0 7.0 0.00 0.00 0.00 88 1016.7
20260901035727 77 214 5.0 6.0 0.00 0.00 0.00 88 1016.8
20260901035226 77 204 5.0 6.0 0.00 0.00 0.00 87 1016.7
20260901034725 77 204 4.0 7.0 0.00 0.00 0.00 86 1016.6
20260901034220 77 201 4.0 5.0 0.00 0.00 0.00 87 1016.8
20260901033720 77 198 4.0 6.0 0.00 0.00 0.00 87 1016.7
20260901033219 77 211 3.0 6.0 0.00 0.00 0.00 87 1017.0
20260901032718 77 218 4.0 6.0 0.00 0.00 0.00 87 1016.7
20260901032218 77 215 3.0 5.0 0.00 0.00 0.00 87 1016.7
20260901031714 77 208 3.0 5.0 0.00 0.00 0.00 86 1016.8
20260901031209 77 198 4.0 5.0 0.00 0.00 0.00 86 1016.8
20260901030704 77 218 3.0 3.0 0.00 0.00 0.00 86 1016.9
20260901030159 77 205 5.0 6.0 0.00 0.00 0.00 86 1017.1
20260901025653 77 213 3.0 5.0 0.00 0.00 0.00 86 1017.1
20260901025148 76 211 3.0 5.0 0.00 0.00 0.00 87 1017.0
20260901024648 76 218 3.0 3.0 0.00 0.00 0.00 88 1017.0